User: anonymous   Login
Location: Unspecified
(0.0000°N, 0.0000°E)
Time: 05:43:35
(UTC+00:00)
Language:

STARLINK-31296 - Orbit

View from above orbital plane
View from above orbital plane
View from above satellite
View from above satellite

Ground track
Ground track

The orbit is defined by the following mean orbital elements,

1 58879U          26144.64933212 +.00000000 +00000-0 +26957-4 0 00000
2 58879  53.1606 303.8219 0001084  77.2617 282.8505 15.30191851    03
Epoch (UTC): 24 May 2026 15:35:02
Eccentricity: 0.0001084
inclination: 53.1606°
perigee height: 474 km
apogee height: 476 km
right ascension of ascending node: 303.8219°
argument of perigee: 77.2617°
revolutions per day: 15.30191851
mean anomaly at epoch: 282.8505°

The dashed part of the orbit path shows where the satellite is in the earth's shadow,  

DLR